This is the latest recevied weather packets stored in our database for station/object K4JOZ-4. If no packets are shown the sender has not sent any weather packets the latest 10 day(s).
| Time | Temp. | Humidity | Pressure | Rain* | Wind** | Luminosity | Snow |
|---|---|---|---|---|---|---|---|
| 1788314258 | 22.78° C | 1% | 1015.8 hPa | 0 mm | - | - | - |
| 1788312459 | 23.33° C | 1% | 1015.5 hPa | 0 mm | - | - | - |
| 1788310658 | 24.44° C | 1% | 1015 hPa | 0 mm | - | - | - |
| 1788310251 | 25° C | 1% | 1015.1 hPa | 0 mm | - | - | - |
| 1788309837 | 25.56° C | 1% | 1015 hPa | 0 mm | - | - | - |
| 1788309007 | 26.67° C | 5% | 1014.8 hPa | 0 mm | - | - | - |
| 1788281752 | 30.56° C | 47% | 1017.7 hPa | 0 mm | - | - | - |
| 1788281344 | 30.56° C | 35% | 1017.8 hPa | 0 mm | - | - | - |
| 1788279528 | 30° C | 21% | 1018.3 hPa | 0 mm | - | - | - |
| 1788279121 | 30° C | 19% | 1018.3 hPa | 0 mm | - | - | - |
| 1788278705 | 30° C | 26% | 1018.4 hPa | 0 mm | - | - | - |
| 1788276902 | 28.89° C | 3% | 1018.6 hPa | 0 mm | - | - | - |
| 1788276495 | 28.89° C | 3% | 1018.7 hPa | 0 mm | - | - | - |
| 1788274686 | 27.78° C | 1% | 1018.7 hPa | 0 mm | - | - | - |
| 1788274279 | 27.22° C | 1% | 1018.8 hPa | 0 mm | - | - | - |
| 1788272476 | 25.56° C | 1% | 1018.8 hPa | 0 mm | - | - | - |
| 1788270686 | 24.44° C | 1% | 1018.8 hPa | 0 mm | - | - | - |
| 1788268877 | 23.89° C | 1% | 1018.6 hPa | 0 mm | - | - | - |
| 1788261676 | 19.44° C | 1% | 1017.8 hPa | 0 mm | - | - | - |
| 1788243676 | 20.56° C | 1% | 1017.4 hPa | 0 mm | - | - | - |
| 1788228868 | 22.22° C | 1% | 1016.8 hPa | 0 mm | - | - | - |
| 1788227068 | 22.78° C | 1% | 1016.6 hPa | 0 mm | - | - | - |
| 1788226661 | 23.33° C | 1% | 1016.5 hPa | 0 mm | - | - | - |
| 1788224859 | 24.44° C | 1% | 1016.2 hPa | 0 mm | - | - | - |
| 1788223059 | 26.67° C | 5% | 1016.1 hPa | 0 mm | - | - | - |
* Rain latest hour (hover to see other rain measurements)
** Current wind speed in m/s (hover to see current wind gust speed)